Location: Carri�res
(48.9069°N, 2.1792°E)
Time: 20:27:00
(UTC+00:00)

COSMOS 2455 - Pass Details

Date: 17 January 2021
Orbit: 901 x 908 km, 67.1° (Epoch: 02 March)

Event Time Altitude Azimuth Distance (km) Brightness Sun altitude
Rises 19:14:17 0° 219° (SW) 3,521 6.5 -27.2°
Reaches altitude 10° 19:16:48 10° 221° (SW) 2,584 5.7 -27.6°
Maximum altitude 19:22:48 76° 306° (NW) 941 2.9 -28.6°
Enters shadow 19:23:38 65° 4° (N) 1,000 2.9 -28.7°
